Time,TemperatureF,DewpointF,PressureIn,WindDirection,WindDirectionDegrees,WindSpeedMPH,WindSpeedGustMPH,Humidity,HourlyPrecipIn,Conditions,Clouds,dailyrainin,SolarRadiationWatts/m^2,SoftwareType,DateUTC
2013-01-23 00:07:00,30.1,-19.0,30.07,SW,233,0.0,7.0,11,0.00,,,0.00,0,weatherlink.com 1.10,2013-01-23 07:07:00,
2013-01-23 00:23:00,29.6,-17.0,30.07,SSW,194,3.0,6.0,12,0.00,,,0.00,0,weatherlink.com 1.10,2013-01-23 07:23:00,
2013-01-23 00:38:00,30.0,-17.0,30.07,South,179,2.0,4.0,12,0.00,,,0.00,0,weatherlink.com 1.10,2013-01-23 07:38:00,
2013-01-23 00:53:00,30.3,-17.0,30.06,South,184,1.0,7.0,12,0.00,,,0.00,0,weatherlink.com 1.10,2013-01-23 07:53:00,
2013-01-23 01:08:00,30.6,-17.0,30.06,WSW,255,6.0,12.0,12,0.00,,,0.00,0,weatherlink.com 1.10,2013-01-23 08:08:00,
2013-01-23 01:23:00,30.8,-15.0,30.06,WNW,299,2.0,11.0,13,0.00,,,0.00,0,weatherlink.com 1.10,2013-01-23 08:23:00,
2013-01-23 01:38:00,30.6,-17.0,30.06,WSW,250,3.0,9.0,12,0.00,,,0.00,0,weatherlink.com 1.10,2013-01-23 08:38:00,
2013-01-23 01:53:00,30.5,-18.0,30.06,West,273,7.0,12.0,11,0.00,,,0.00,0,weatherlink.com 1.10,2013-01-23 08:53:00,
2013-01-23 02:08:00,31.5,-18.0,30.06,West,273,2.0,10.0,11,0.00,,,0.00,0,weatherlink.com 1.10,2013-01-23 09:08:00,
2013-01-23 02:23:00,31.7,-17.0,30.05,SW,234,2.0,10.0,11,0.00,,,0.00,0,weatherlink.com 1.10,2013-01-23 09:23:00,
2013-01-23 02:38:00,31.7,-19.0,30.05,West,264,1.0,9.0,10,0.00,,,0.00,0,weatherlink.com 1.10,2013-01-23 09:38:00,
2013-01-23 02:53:00,31.4,-19.0,30.05,WSW,252,0.0,6.0,10,0.00,,,0.00,0,weatherlink.com 1.10,2013-01-23 09:53:00,
2013-01-23 03:08:00,30.9,-18.0,30.05,South,188,0.0,8.0,11,0.00,,,0.00,0,weatherlink.com 1.10,2013-01-23 10:08:00,
2013-01-23 03:23:00,30.1,-19.0,30.05,SW,225,0.0,3.0,11,0.00,,,0.00,0,weatherlink.com 1.10,2013-01-23 10:23:00,
2013-01-23 03:39:00,30.0,-19.0,30.04,WSW,249,0.0,5.0,11,0.00,,,0.00,0,weatherlink.com 1.10,2013-01-23 10:39:00,
2013-01-23 03:54:00,29.7,-17.0,30.05,SSW,201,2.0,6.0,12,0.00,,,0.00,0,weatherlink.com 1.10,2013-01-23 10:54:00,
2013-01-23 04:09:00,30.1,-19.0,30.05,WSW,248,0.0,5.0,11,0.00,,,0.00,0,weatherlink.com 1.10,2013-01-23 11:09:00,
2013-01-23 04:24:00,30.0,-19.0,30.05,SSE,150,1.0,4.0,11,0.00,,,0.00,0,weatherlink.com 1.10,2013-01-23 11:24:00,
2013-01-23 04:39:00,30.7,-20.0,30.05,WSW,249,2.0,6.0,10,0.00,,,0.00,0,weatherlink.com 1.10,2013-01-23 11:39:00,
2013-01-23 04:54:00,31.1,-22.0,30.05,WSW,248,1.0,4.0,9,0.00,,,0.00,0,weatherlink.com 1.10,2013-01-23 11:54:00,
2013-01-23 05:09:00,30.7,-20.0,30.05,West,261,0.0,2.0,10,0.00,,,0.00,0,weatherlink.com 1.10,2013-01-23 12:09:00,
2013-01-23 05:24:00,30.8,-18.0,30.04,SW,225,0.0,3.0,11,0.00,,,0.00,0,weatherlink.com 1.10,2013-01-23 12:24:00,
2013-01-23 05:39:00,31.1,-18.0,30.05,WSW,243,0.0,4.0,11,0.00,,,0.00,0,weatherlink.com 1.10,2013-01-23 12:39:00,
2013-01-23 05:54:00,31.2,-20.0,30.05,West,263,0.0,4.0,10,0.00,,,0.00,0,weatherlink.com 1.10,2013-01-23 12:54:00,
2013-01-23 06:09:00,31.3,-18.0,30.05,West,275,1.0,5.0,11,0.00,,,0.00,0,weatherlink.com 1.10,2013-01-23 13:09:00,
2013-01-23 06:24:00,32.2,-17.0,30.05,West,261,3.0,10.0,11,0.00,,,0.00,0,weatherlink.com 1.10,2013-01-23 13:24:00,
2013-01-23 06:39:00,33.2,-18.0,30.05,WSW,246,3.0,9.0,10,0.00,,,0.00,0,weatherlink.com 1.10,2013-01-23 13:39:00,
2013-01-23 06:54:00,32.9,-18.0,30.05,NW,306,3.0,9.0,10,0.00,,,0.00,0,weatherlink.com 1.10,2013-01-23 13:54:00,
2013-01-23 07:10:00,31.6,-17.0,30.06,WSW,253,1.0,4.0,11,0.00,,,0.00,0,weatherlink.com 1.10,2013-01-23 14:10:00,
2013-01-23 07:25:00,31.2,-20.0,30.06,West,281,2.0,7.0,10,0.00,,,0.00,12,weatherlink.com 1.10,2013-01-23 14:25:00,
2013-01-23 07:40:00,32.3,-19.0,30.06,West,260,2.0,7.0,10,0.00,,,0.00,47,weatherlink.com 1.10,2013-01-23 14:40:00,
2013-01-23 07:55:00,33.8,-20.0,30.06,NNE,32,0.0,2.0,9,0.00,,,0.00,125,weatherlink.com 1.10,2013-01-23 14:55:00,
2013-01-23 08:10:00,34.0,-14.0,30.05,West,272,0.0,3.0,12,0.00,,,0.00,171,weatherlink.com 1.10,2013-01-23 15:10:00,
2013-01-23 08:25:00,33.5,-13.0,30.05,WSW,253,2.0,6.0,13,0.00,,,0.00,100,weatherlink.com 1.10,2013-01-23 15:25:00,
2013-01-23 08:40:00,32.9,-13.0,30.05,WSW,245,1.0,8.0,13,0.00,,,0.00,109,weatherlink.com 1.10,2013-01-23 15:40:00,
2013-01-23 08:55:00,34.2,-17.0,30.05,SW,217,4.0,11.0,10,0.00,,,0.00,127,weatherlink.com 1.10,2013-01-23 15:55:00,
2013-01-23 09:10:00,35.1,-15.0,30.05,SW,235,1.0,6.0,11,0.00,,,0.00,146,weatherlink.com 1.10,2013-01-23 16:10:00,
2013-01-23 09:25:00,35.6,-16.0,30.04,SSE,168,2.0,4.0,10,0.00,,,0.00,169,weatherlink.com 1.10,2013-01-23 16:25:00,
2013-01-23 09:40:00,37.4,-15.0,30.04,SW,215,9.0,11.0,10,0.00,,,0.00,287,weatherlink.com 1.10,2013-01-23 16:40:00,
2013-01-23 09:55:00,38.9,-16.0,30.05,West,271,3.0,12.0,9,0.00,,,0.00,311,weatherlink.com 1.10,2013-01-23 16:55:00,
2013-01-23 10:10:00,38.9,-14.0,30.05,WSW,255,4.0,7.0,10,0.00,,,0.00,271,weatherlink.com 1.10,2013-01-23 17:10:00,
2013-01-23 10:25:00,40.6,-12.0,30.06,WSW,254,3.0,7.0,10,0.00,,,0.00,441,weatherlink.com 1.10,2013-01-23 17:25:00,
2013-01-23 10:41:00,42.9,-10.0,30.05,WNW,295,3.0,6.0,10,0.00,,,0.00,543,weatherlink.com 1.10,2013-01-23 17:41:00,
2013-01-23 10:56:00,44.0,-10.0,30.05,WNW,297,2.0,5.0,10,0.00,,,0.00,568,weatherlink.com 1.10,2013-01-23 17:56:00,
2013-01-23 11:11:00,44.6,-11.0,30.04,West,271,3.0,8.0,9,0.00,,,0.00,592,weatherlink.com 1.10,2013-01-23 18:11:00,
2013-01-23 11:26:00,44.6,-2.0,30.03,West,281,3.0,5.0,14,0.00,,,0.00,617,weatherlink.com 1.10,2013-01-23 18:26:00,
2013-01-23 11:41:00,46.4,-6.0,30.03,WNW,300,3.0,6.0,11,0.00,,,0.00,638,weatherlink.com 1.10,2013-01-23 18:41:00,
2013-01-23 11:56:00,47.8,-5.0,30.02,West,279,1.0,12.0,11,0.00,,,0.00,643,weatherlink.com 1.10,2013-01-23 18:56:00,
2013-01-23 12:11:00,48.6,-8.0,30.00,WSW,254,4.0,8.0,9,0.00,,,0.00,642,weatherlink.com 1.10,2013-01-23 19:11:00,
2013-01-23 12:26:00,49.2,-6.0,30.00,West,260,3.0,9.0,10,0.00,,,0.00,647,weatherlink.com 1.10,2013-01-23 19:26:00,
2013-01-23 12:41:00,50.3,-7.0,29.99,WSW,241,0.0,6.0,9,0.00,,,0.00,640,weatherlink.com 1.10,2013-01-23 19:41:00,
2013-01-23 12:56:00,49.9,-3.0,29.98,WNW,290,2.0,8.0,11,0.00,,,0.00,636,weatherlink.com 1.10,2013-01-23 19:56:00,
2013-01-23 13:11:00,49.7,1.0,29.98,WSW,246,3.0,10.0,13,0.00,,,0.00,552,weatherlink.com 1.10,2013-01-23 20:11:00,
2013-01-23 13:26:00,49.6,0.0,29.98,WNW,289,4.0,12.0,13,0.00,,,0.00,638,weatherlink.com 1.10,2013-01-23 20:26:00,
2013-01-23 13:41:00,50.1,-1.0,29.98,West,265,4.0,11.0,12,0.00,,,0.00,580,weatherlink.com 1.10,2013-01-23 20:41:00,
2013-01-23 13:57:00,49.6,4.0,29.98,West,265,5.0,9.0,15,0.00,,,0.00,450,weatherlink.com 1.10,2013-01-23 20:57:00,
2013-01-23 14:12:00,48.4,-4.0,29.97,WNW,290,8.0,10.0,11,0.00,,,0.00,232,weatherlink.com 1.10,2013-01-23 21:12:00,
2013-01-23 14:27:00,47.2,-3.0,29.97,SW,236,8.0,9.0,12,0.00,,,0.00,244,weatherlink.com 1.10,2013-01-23 21:27:00,
2013-01-23 14:42:00,46.7,-4.0,29.97,West,273,1.0,10.0,12,0.00,,,0.00,172,weatherlink.com 1.10,2013-01-23 21:42:00,
2013-01-23 14:57:00,46.3,-2.0,29.97,WNW,282,2.0,7.0,13,0.00,,,0.00,188,weatherlink.com 1.10,2013-01-23 21:57:00,
2013-01-23 15:12:00,45.2,-2.0,29.97,West,259,5.0,9.0,14,0.00,,,0.00,155,weatherlink.com 1.10,2013-01-23 22:12:00,
2013-01-23 15:27:00,44.9,0.0,29.97,WNW,289,3.0,10.0,15,0.00,,,0.00,132,weatherlink.com 1.10,2013-01-23 22:27:00,
2013-01-23 15:42:00,44.4,-1.0,29.97,NW,307,4.0,10.0,15,0.00,,,0.00,111,weatherlink.com 1.10,2013-01-23 22:42:00,
2013-01-23 15:57:00,43.8,-1.0,29.97,WNW,299,3.0,7.0,15,0.00,,,0.00,76,weatherlink.com 1.10,2013-01-23 22:57:00,
2013-01-23 16:12:00,42.8,1.0,29.97,WNW,284,3.0,9.0,17,0.00,,,0.00,62,weatherlink.com 1.10,2013-01-23 23:12:00,
2013-01-23 16:27:00,42.5,0.0,29.97,WSW,249,2.0,12.0,17,0.00,,,0.00,53,weatherlink.com 1.10,2013-01-23 23:27:00,
2013-01-23 16:42:00,41.7,-2.0,29.97,WNW,296,3.0,10.0,16,0.00,,,0.00,30,weatherlink.com 1.10,2013-01-23 23:42:00,
2013-01-23 16:57:00,40.9,-4.0,29.97,West,265,5.0,13.0,15,0.00,,,0.00,14,weatherlink.com 1.10,2013-01-23 23:57:00,
2013-01-23 17:12:00,40.7,-4.0,29.97,West,267,4.0,13.0,15,0.00,,,0.00,0,weatherlink.com 1.10,2013-01-24 00:12:00,
2013-01-23 17:28:00,39.8,-2.0,29.97,WNW,302,2.0,5.0,17,0.00,,,0.00,0,weatherlink.com 1.10,2013-01-24 00:28:00,
2013-01-23 17:43:00,37.1,-3.0,29.97,West,275,2.0,5.0,18,0.00,,,0.00,0,weatherlink.com 1.10,2013-01-24 00:43:00,
2013-01-23 17:58:00,38.1,-5.0,29.97,WSW,253,0.0,6.0,16,0.00,,,0.00,0,weatherlink.com 1.10,2013-01-24 00:58:00,
2013-01-23 18:13:00,39.2,-7.0,29.98,WSW,252,0.0,2.0,14,0.00,,,0.00,0,weatherlink.com 1.10,2013-01-24 01:13:00,
2013-01-23 18:28:00,39.6,-5.0,29.98,SSW,198,1.0,3.0,15,0.00,,,0.00,0,weatherlink.com 1.10,2013-01-24 01:28:00,
2013-01-23 18:43:00,39.0,-7.0,29.98,SW,215,1.0,3.0,14,0.00,,,0.00,0,weatherlink.com 1.10,2013-01-24 01:43:00,
2013-01-23 18:58:00,38.2,-6.0,29.99,SW,226,0.0,4.0,15,0.00,,,0.00,0,weatherlink.com 1.10,2013-01-24 01:58:00,
2013-01-23 19:13:00,37.6,-6.0,29.98,SSE,164,2.0,5.0,15,0.00,,,0.00,0,weatherlink.com 1.10,2013-01-24 02:13:00,
2013-01-23 19:28:00,37.9,-6.0,29.98,SSW,209,0.0,2.0,15,0.00,,,0.00,0,weatherlink.com 1.10,2013-01-24 02:28:00,
2013-01-23 19:43:00,38.3,-7.0,29.97,West,269,1.0,5.0,14,0.00,,,0.00,0,weatherlink.com 1.10,2013-01-24 02:43:00,
2013-01-23 19:58:00,38.1,-5.0,29.97,West,275,0.0,4.0,16,0.00,,,0.00,0,weatherlink.com 1.10,2013-01-24 02:58:00,
2013-01-23 20:13:00,36.4,-4.0,29.97,NW,304,2.0,2.0,18,0.00,,,0.00,0,weatherlink.com 1.10,2013-01-24 03:13:00,
2013-01-23 20:28:00,36.0,-6.0,29.97,West,263,0.0,4.0,16,0.00,,,0.00,0,weatherlink.com 1.10,2013-01-24 03:28:00,
2013-01-23 20:44:00,36.5,-7.0,29.96,NNW,333,0.0,3.0,15,0.00,,,0.00,0,weatherlink.com 1.10,2013-01-24 03:44:00,
2013-01-23 20:59:00,36.8,-8.0,29.96,NNW,333,0.0,1.0,14,0.00,,,0.00,0,weatherlink.com 1.10,2013-01-24 03:59:00,
2013-01-23 21:14:00,37.0,-8.0,29.96,NNE,18,0.0,3.0,14,0.00,,,0.00,0,weatherlink.com 1.10,2013-01-24 04:14:00,
2013-01-23 21:29:00,37.1,-8.0,29.96,NNE,19,0.0,1.0,14,0.00,,,0.00,0,weatherlink.com 1.10,2013-01-24 04:29:00,
2013-01-23 21:44:00,36.9,-10.0,29.95,NNE,19,0.0,1.0,13,0.00,,,0.00,0,weatherlink.com 1.10,2013-01-24 04:44:00,
2013-01-23 21:59:00,37.0,-8.0,29.95,South,178,2.0,2.0,14,0.00,,,0.00,0,weatherlink.com 1.10,2013-01-24 04:59:00,
2013-01-23 22:14:00,36.5,-6.0,29.95,West,268,0.0,6.0,16,0.00,,,0.00,0,weatherlink.com 1.10,2013-01-24 05:14:00,
2013-01-23 22:29:00,35.8,-7.0,29.95,SW,219,0.0,3.0,16,0.00,,,0.00,0,weatherlink.com 1.10,2013-01-24 05:29:00,
2013-01-23 22:44:00,35.3,-8.0,29.95,South,174,0.0,3.0,15,0.00,,,0.00,0,weatherlink.com 1.10,2013-01-24 05:44:00,
2013-01-23 22:59:00,33.9,-6.0,29.95,South,174,0.0,1.0,18,0.00,,,0.00,0,weatherlink.com 1.10,2013-01-24 05:59:00,
2013-01-23 23:14:00,33.9,-7.0,29.94,NNW,348,2.0,3.0,17,0.00,,,0.00,0,weatherlink.com 1.10,2013-01-24 06:14:00,
2013-01-23 23:29:00,33.6,-5.0,29.94,SSW,209,0.0,5.0,19,0.00,,,0.00,0,weatherlink.com 1.10,2013-01-24 06:29:00,
2013-01-23 23:44:00,32.0,-3.0,29.94,SSE,161,3.0,8.0,22,0.00,,,0.00,0,weatherlink.com 1.10,2013-01-24 06:44:00,
2013-01-23 23:59:00,31.7,-3.0,29.93,SE,146,0.0,6.0,22,0.00,,,0.00,0,weatherlink.com 1.10,2013-01-24 06:59:00,